Flag for Canada Weather past 2 weeks in Quesnel, British Columbia, Canada

Now
57 °F

Sunny.


Feels Like: 57 °F
Forecast: 54 / 71 °F
Wind: 2 mph from North

Location: Quesnel Airport

Current Time: Aug 3, 2015 at 8:13:38 AM

Latest Report: Aug 3, 2015 at 7:00 AM


Visibility: 9 mi

Pressure: 29.85 "Hg

Humidity: 77%

Dew point: 50 °F

Location of QuesnelLocation

Historic Weather in Quesnel — Graph

°F

Quesnel temperature yesterday

Maximum temperature yesterday: 84 °F (at 4:00 PM)
Minimum temperature yesterday: 50 °F (at 5:00 AM)
Average temperature yesterday: 68 °F

Past Weeks' High & Low Weather Summary

 TemperatureHumidityPressure
High84 °F (Jul 19, 4:00 PM)100% (Jul 21, 2:00 AM)30.27 "Hg (Jul 21, 2:00 AM)
Low45 °F (Jul 23, 4:59 AM)23% (Jul 19, 7:00 PM)29.70 "Hg (Jul 20, 1:00 PM)
Average62 °F71%29.98 "Hg
* Reported Jul 19 7:00 AM — Aug 3 7:00 AM, Quesnel, Weather by CustomWeather, © 2015

Note: Actual official high and low records may vary slightly from our data, if they occured in-between our weather recording intervals... More about our weather records

Advertising

Quesnel weather history for previous 24 hours

 ConditionsComfort  
Time TempWeatherWind HumidityBarometerVisibility
7:00 AM
Mon, Aug 3
57 °FSunny.2 mph77%29.85 "Hg9 mi
6:00 AM55 °FClear.2 mph82%29.86 "Hg9 mi
5:00 AM55 °FPassing clouds.3 mph82%29.85 "Hg9 mi
4:00 AM57 °FClear.2 mph77%29.85 "Hg9 mi
3:00 AM59 °FClear.3 mph72%29.86 "Hg9 mi
2:00 AM61 °FClear.3 mph72%29.85 "Hg9 mi
1:00 AM63 °FPassing clouds.6 mph73%29.85 "Hg9 mi
12:00 AM66 °FClear.9 mph64%29.83 "Hg9 mi
11:00 PM
Sun, Aug 2
68 °FClear.6 mph60%29.82 "Hg9 mi
10:00 PM73 °FOvercast.14 mph47%29.80 "Hg9 mi
9:00 PM72 °FPartly sunny.6 mph61%29.79 "Hg9 mi
8:00 PM81 °FSunny.9 mph30%29.78 "Hg9 mi
7:00 PM84 °FSunny.5 mph29%29.78 "Hg9 mi
6:00 PM82 °FSunny.6 mph32%29.81 "Hg9 mi
5:00 PM84 °FSunny.9 mph33%29.83 "Hg9 mi
4:00 PM84 °FSunny.13 mph29%29.85 "Hg9 mi
3:00 PM82 °FSunny.6 mph30%29.87 "Hg9 mi
2:00 PM81 °FSunny.8 mph34%29.90 "Hg9 mi
1:00 PM77 °FSunny.2 mph39%29.92 "Hg9 mi
12:00 PM75 °FSunny.2 mph41%29.94 "Hg9 mi
11:00 AM72 °FSunny.No wind50%29.97 "Hg9 mi
10:00 AM68 °FSunny.5 mph53%29.99 "Hg9 mi
9:00 AM63 °FSunny.2 mph68%30.00 "Hg9 mi
8:00 AM57 °FSunny.2 mph82%30.01 "Hg9 mi
Weather by CustomWeather, © 2015

See weather overviewHow to use our weather pages